Wind_Speed
27 27 28 27 27 29 30 31 32 34 37 38 37 38 37 36 37 39 43 47 47 45 44 46 50 52 51 52 52 53 53 54 55 56 57 57 57 58 57 57 57 57 56 56 55 53 52 50 49 47 46 44 43 44 43 42 42 41 41 40 39 39 38
28 28 29 29 30 30 31 33 33 34 38 39 38 38 39 40 41 42 45 48 48 47 47 48 50 52 53 53 53 54 54 54 56 58 58 59 60 60 60 59 59 58 58 57 57 56 54 53 51 50 47 45 45 44 43 43 42 42 41 41 40 39 40
28 29 29 31 33 32 32 35 36 36 39 39 38 40 41 42 43 44 46 49 49 49 48 49 51 52 54 54 54 56 55 54 57 59 60 61 62 62 63 62 61 60 60 59 59 58 57 56 54 52 50 48 47 46 44 43 43 42 42 42 42 41 41
29 31 31 31 33 33 33 36 38 39 40 39 39 41 42 43 43 45 48 49 49 49 49 51 52 53 55 55 56 58 55 54 59 61 61 63 63 64 65 63 62 62 62 61 61 60 59 57 55 54 52 50 49 47 46 45 44 43 43 44 44 43 44
30 32 33 32 32 35 37 38 38 40 41 41 41 42 42 44 44 46 48 49 49 50 50 51 52 54 56 57 59 60 55 54 61 62 62 65 65 66 66 64 63 64 64 63 62 61 60 58 56 54 53 52 51 49 47 46 45 45 45 45 46 46 46
32 32 34 35 35 37 41 40 39 41 43 43 43 43 43 44 45 47 48 50 51 51 51 53 54 56 57 58 62 61 53 55 63 63 64 66 66 68 67 65 64 66 66 66 64 62 60 58 57 55 54 53 52 51 49 47 46 46 46 47 48 48 49
35 34 35 37 38 40 43 43 42 44 45 44 45 45 44 45 46 48 50 51 52 52 53 55 57 58 58 60 64 61 53 56 65 65 66 69 69 69 69 67 66 68 70 70 67 65 62 60 58 56 55 54 53 52 50 49 47 47 47 48 49 50 51
38 36 37 39 40 40 43 45 44 45 46 46 46 45 45 46 48 51 53 54 55 55 56 57 59 60 61 63 66 62 53 55 65 68 69 71 71 71 71 69 68 70 73 72 71 69 66 63 60 58 57 55 54 53 52 50 49 48 48 49 50 52 53
40 39 39 40 41 40 42 45 46 46 47 46 45 46 49 50 51 54 56 57 59 59 58 59 60 62 64 66 67 60 51 54 65 71 73 73 73 73 73 72 71 72 73 72 71 70 68 66 64 61 59 57 55 54 53 52 51 50 50 50 51 53 54
42 42 41 41 43 43 43 45 47 48 47 46 47 49 52 53 53 56 58 59 62 62 61 61 61 63 68 68 64 55 51 56 65 72 76 76 75 75 75 75 74 75 75 73 71 69 68 67 65 63 61 59 57 56 54 53 53 52 52 52 52 54 56
45 44 43 43 44 45 46 47 49 49 48 51 52 51 51 53 56 60 61 61 63 63 64 65 64 65 67 63 58 55 55 60 66 72 78 79 77 78 77 77 77 78 77 75 73 71 69 68 66 65 63 61 59 58 55 54 54 54 54 54 55 56 57
48 46 46 45 44 46 47 48 50 50 51 53 54 53 55 56 59 63 63 62 64 64 65 67 67 67 64 58 55 57 60 64 67 74 80 80 79 80 79 79 79 79 79 78 76 73 70 69 67 65 63 62 60 58 57 55 54 54 54 55 57 58 59
50 49 48 48 47 47 48 48 50 52 53 54 55 56 59 59 61 63 63 64 65 65 66 67 67 68 63 56 54 59 64 67 70 77 81 80 80 81 80 80 80 80 81 81 79 75 72 70 68 65 63 61 59 58 56 54 54 54 55 56 58 60 61
53 52 50 50 50 50 50 49 52 54 55 56 58 60 62 62 62 64 65 66 66 67 68 69 69 67 59 53 57 64 67 69 73 79 81 81 82 82 81 82 82 82 84 85 81 77 74 72 68 65 63 60 58 56 55 55 55 55 55 57 59 61 63
54 54 54 53 52 52 52 52 54 56 57 58 60 62 63 63 65 67 66 65 67 70 71 72 71 63 55 56 65 70 70 72 77 81 81 82 84 83 82 83 83 85 87 86 81 78 76 73 68 65 63 60 57 55 55 57 57 56 56 57 60 62 64
55 56 57 57 55 55 55 56 56 58 59 60 63 65 65 67 69 67 63 65 71 74 76 76 68 56 55 64 72 75 76 78 80 82 83 84 85 84 84 84 85 87 88 85 81 78 76 71 66 64 62 59 57 56 56 58 59 58 58 59 61 63 65
57 56 57 59 59 58 58 58 58 59 60 60 63 67 68 69 67 62 62 70 75 78 80 74 60 56 64 71 75 78 81 81 81 83 85 86 86 86 84 84 86 88 87 83 80 79 76 69 65 63 60 58 58 58 58 59 60 60 60 61 63 65 68
59 59 59 60 60 60 61 60 59 59 60 60 63 65 65 66 64 62 67 75 79 82 79 67 61 68 74 74 77 83 84 82 83 85 86 87 88 86 83 83 87 89 86 84 82 81 76 67 63 62 61 61 61 60 59 60 61 61 62 64 66 68 70
61 61 62 62 62 61 61 62 61 60 61 61 61 59 59 63 66 67 72 77 80 79 69 61 66 73 72 72 80 87 85 83 85 86 87 89 89 84 81 83 89 90 88 86 85 82 74 67 65 65 64 64 63 61 60 60 62 63 64 66 69 71 72
63 63 64 65 65 63 62 64 63 62 61 63 61 57 57 63 68 72 75 75 73 67 60 60 66 70 70 76 86 88 86 86 87 87 88 88 86 81 80 85 92 93 91 89 86 82 76 72 70 67 64 62 62 62 62 62 64 66 66 68 72 73 74
65 66 66 66 67 67 65 65 65 63 62 64 64 61 60 63 69 72 68 61 58 58 58 60 65 70 76 83 88 89 88 88 89 88 88 88 85 81 82 89 95 94 93 91 87 84 81 76 71 66 62 61 62 64 65 66 68 69 70 72 74 75 75
67 68 68 68 69 69 68 67 66 64 64 65 67 67 66 66 66 59 49 46 53 60 63 65 71 76 80 85 90 90 88 89 90 90 89 88 85 82 86 94 96 94 93 92 89 86 82 75 69 65 63 63 65 67 69 70 71 72 73 74 75 75 74
67 69 70 70 70 70 70 70 68 67 68 67 66 67 65 63 61 55 52 55 61 66 70 74 76 77 81 88 91 89 88 89 91 90 89 88 83 83 91 98 97 94 94 92 88 85 80 72 68 68 67 68 70 72 73 74 75 75 75 75 75 74 72
69 70 71 71 70 70 70 69 68 69 68 65 64 64 62 61 62 64 62 59 57 60 66 71 74 78 85 90 89 87 89 91 91 90 89 86 83 88 96 100 98 96 94 90 87 83 75 69 70 72 72 72 75 77 78 79 79 77 76 76 76 74 71
71 70 71 71 70 69 68 67 68 68 67 67 67 61 55 57 64 66 61 56 55 58 63 69 76 83 87 89 89 89 91 92 92 91 89 86 87 94 100 102 100 97 93 90 86 77 70 70 74 75 75 77 79 80 80 80 79 79 79 79 80 78 73
72 70 71 71 70 69 69 70 70 68 69 72 67 56 52 58 65 65 63 60 59 61 67 74 80 83 84 87 89 90 93 95 93 90 88 87 91 99 103 102 100 97 93 88 79 71 70 74 77 77 78 80 81 81 83 84 84 84 83 82 82 80 76
71 71 71 70 69 70 72 72 72 71 71 67 59 53 55 58 58 57 57 59 62 67 74 79 80 80 83 87 89 92 97 98 95 90 87 89 96 103 104 103 100 96 90 81 74 73 78 80 80 79 81 82 82 83 86 88 89 88 85 82 80 78 74
71 70 70 69 70 71 70 68 69 68 65 60 54 52 52 53 54 56 58 62 69 74 77 81 80 80 84 89 92 96 100 99 94 89 87 93 102 106 105 103 100 94 87 80 78 80 83 82 81 82 82 83 84 84 85 86 86 85 83 80 78 75 70
71 71 70 68 69 69 65 63 62 60 59 59 56 53 56 62 65 67 68 71 75 76 79 81 80 82 88 93 96 99 100 95 87 84 91 101 106 106 106 104 98 90 86 83 81 82 82 83 83 83 83 84 86 86 85 85 84 81 79 77 74 70 65
73 72 71 69 68 69 67 64 62 63 64 63 60 61 67 71 71 72 75 76 77 78 80 80 82 87 94 97 98 101 96 86 81 88 101 108 108 106 105 101 94 87 84 83 82 82 83 85 86 86 86 87 87 87 87 85 82 78 75 72 69 65 61
74 75 74 71 70 72 72 69 67 66 64 63 64 68 71 71 72 76 79 80 79 80 81 83 89 95 98 100 102 99 88 81 89 102 109 109 106 105 102 97 91 86 83 83 84 85 85 86 87 88 88 88 88 88 86 83 80 76 72 68 64 61 58
75 76 74 71 71 71 71 69 68 67 64 64 66 67 67 70 77 82 83 82 81 82 85 90 95 98 99 101 98 89 82 87 101 111 111 108 106 103 99 95 91 87 85 85 86 87 87 88 89 90 90 90 89 87 83 80 77 73 68 64 60 57 55
74 75 73 72 68 63 61 62 63 64 64 66 67 68 71 78 83 85 84 83 83 86 91 95 98 99 99 96 88 82 86 98 107 110 109 107 104 100 96 94 91 88 88 88 88 89 90 91 91 91 91 90 87 83 80 77 74 70 65 61 56 53 50
72 72 70 65 58 54 57 63 67 70 70 71 75 79 81 80 80 82 85 87 90 94 97 99 100 100 98 94 91 93 99 106 107 107 106 104 100 96 93 93 92 91 91 91 91 91 92 93 93 92 89 86 83 80 78 76 72 67 62 57 53 49 46
71 69 63 56 53 57 62 67 70 74 78 81 85 85 82 79 82 87 91 94 97 99 100 101 102 101 99 99 100 102 105 106 106 104 102 99 96 93 92 92 94 94 94 94 94 94 94 93 91 87 84 81 80 79 77 74 69 64 58 53 49 46 42
70 68 66 65 67 72 75 75 76 80 85 88 88 87 87 88 92 95 98 100 101 101 102 102 101 100 101 103 103 104 105 104 103 100 97 94 93 92 92 93 95 95 95 95 94 93 93 90 86 83 81 80 80 78 74 70 66 61 55 50 46 42 38
73 73 73 75 78 80 82 84 86 88 91 91 91 92 95 96 98 100 101 102 102 103 103 103 102 103 105 105 104 103 103 102 99 95 92 91 92 92 93 94 95 95 95 95 94 92 89 87 85 84 82 81 79 76 71 67 63 58 52 48 44 40 36
79 78 78 79 81 82 84 87 89 90 91 92 93 95 98 99 100 102 102 102 102 102 104 105 106 107 106 105 104 103 101 99 97 93 90 90 91 93 94 95 95 95 96 95 93 90 87 86 85 84 82 79 77 73 68 64 60 56 50 46 42 39 35
Wind_Direction
319 318 315 315 320 326 325 323 325 324 323 326 329 332 333 329 324 323 325 330 333 335 334 331 330 331 333 334 335 335 336 338 339 340 340 340 339 338 336 335 333 331 329 327 325 322 318 314 310 307 303 299 296 292 290 289 287 285 283 280 278 276 276
317 317 315 313 312 319 323 321 321 321 320 324 328 328 328 327 325 325 326 329 331 332 332 330 328 329 330 332 332 332 334 336 338 338 339 338 338 337 336 334 333 331 329 327 324 322 320 317 313 309 306 301 297 294 292 290 288 286 284 281 279 278 277
311 312 313 312 307 311 320 318 315 317 318 320 323 325 325 324 323 323 325 327 328 328 329 327 326 327 328 329 329 329 330 332 336 337 337 337 337 336 335 334 333 331 329 327 325 323 321 318 315 311 307 303 298 296 293 291 289 286 284 282 280 279 279
307 307 310 313 307 305 312 314 311 312 315 315 318 321 322 321 321 322 323 325 326 325 325 325 324 324 326 326 326 327 327 329 333 336 336 336 336 335 334 333 332 331 329 327 325 323 321 319 315 312 307 303 299 297 294 292 289 287 285 283 281 280 281
304 305 307 310 307 301 304 309 308 309 311 311 313 316 318 318 319 320 321 323 323 323 322 323 323 323 324 324 324 325 324 328 333 334 335 335 334 334 333 332 331 330 329 327 325 323 322 319 315 311 307 303 300 297 294 291 289 287 285 283 281 281 281
301 304 305 306 305 302 303 305 306 307 309 309 309 311 314 315 317 319 320 321 322 321 321 322 321 322 322 322 323 323 322 328 333 334 334 334 333 332 332 331 330 330 329 327 325 324 322 319 316 312 308 304 301 297 294 291 288 286 284 283 282 282 282
298 300 301 301 302 303 302 303 305 307 308 309 307 307 310 312 314 318 319 320 321 320 320 321 320 321 321 320 321 320 318 326 333 334 333 333 332 331 331 330 329 329 329 328 326 324 322 320 317 313 309 306 303 299 295 292 289 286 284 284 284 283 284
294 296 297 297 299 301 300 302 305 306 307 307 305 304 308 311 313 318 319 319 321 320 319 319 320 320 319 318 319 317 313 321 332 334 332 331 330 330 330 329 328 329 329 328 326 325 323 321 318 315 312 309 305 302 298 295 291 288 286 286 287 287 287
291 294 294 295 297 298 299 301 304 305 305 306 304 302 306 310 313 317 318 317 320 320 319 318 318 319 318 317 317 314 310 317 328 332 331 329 329 329 329 328 327 327 328 327 326 325 323 321 319 316 314 311 307 304 301 298 296 293 291 290 290 290 289
290 293 294 295 295 296 298 299 301 304 303 303 303 302 304 307 310 315 317 316 319 319 317 316 317 319 318 318 317 313 311 316 323 327 328 327 327 327 327 327 326 326 327 326 325 324 322 320 318 316 314 312 309 306 303 301 299 297 296 294 293 293 292
290 292 293 295 296 296 297 297 300 302 301 302 305 304 304 305 308 313 315 315 317 318 316 315 317 320 318 317 317 315 314 316 319 323 325 324 325 326 326 326 325 326 327 326 325 324 322 321 319 317 315 312 310 308 305 303 301 300 298 297 296 295 294
290 292 293 295 296 296 296 297 299 301 301 304 305 304 304 303 306 311 313 314 316 316 315 315 317 320 318 315 316 315 314 315 316 320 322 322 324 325 325 325 325 325 326 326 325 324 322 320 318 316 314 312 310 308 306 304 303 301 301 300 299 298 297
289 291 293 295 296 296 296 297 299 300 301 303 304 303 303 303 305 309 312 313 314 314 315 315 317 319 317 314 315 314 312 310 313 317 320 321 323 324 324 324 324 324 325 325 325 323 321 319 317 315 313 311 310 308 306 305 304 303 303 302 302 301 301
288 290 292 293 294 296 297 297 297 298 300 302 303 303 303 303 306 309 310 310 312 314 316 317 317 317 314 311 312 313 310 308 311 316 319 321 322 323 323 324 324 324 324 325 325 323 321 319 317 315 314 312 310 309 308 306 304 304 304 303 302 302 303
287 290 291 292 293 294 295 296 296 297 300 302 303 303 303 304 307 308 307 308 313 316 317 318 316 313 309 308 310 312 311 310 312 316 319 321 322 322 323 324 324 324 324 325 324 323 321 319 317 315 314 312 310 310 309 307 305 304 303 303 303 303 304
285 288 290 291 292 293 294 296 297 298 300 302 303 305 305 304 306 306 305 310 316 317 317 318 315 308 304 306 310 312 312 312 314 317 319 321 322 322 323 323 324 324 324 324 323 323 322 319 316 316 314 311 311 311 309 307 305 304 304 303 304 305 305
285 286 288 290 292 293 294 295 297 298 300 302 303 304 304 304 306 306 307 313 318 318 317 317 311 303 301 305 308 311 312 313 315 318 320 321 321 322 322 323 324 324 324 324 323 324 322 318 316 316 314 313 313 312 309 307 306 305 305 305 306 307 307
285 286 287 288 290 292 294 295 296 298 300 301 303 304 305 307 308 307 310 315 318 317 315 309 302 300 301 302 306 311 312 313 316 318 319 320 320 321 321 322 324 325 324 324 323 323 321 317 316 317 315 313 313 311 309 308 307 306 307 308 309 309 310
285 286 287 288 289 291 293 294 295 298 299 300 302 305 307 305 304 306 310 314 315 314 307 297 295 297 297 299 306 311 312 313 316 318 319 319 319 319 320 322 325 326 325 324 323 321 319 317 316 315 314 312 311 310 309 309 309 308 309 310 311 311 311
285 286 287 288 289 291 292 294 295 297 298 298 299 302 301 298 299 304 308 312 314 309 298 290 292 295 296 301 308 310 311 313 315 317 317 318 319 318 319 322 325 325 323 322 321 319 317 316 315 314 313 311 310 310 310 310 310 310 311 312 313 313 312
285 286 288 289 290 292 293 293 295 296 296 296 297 299 298 296 299 305 308 309 308 300 289 287 291 294 298 303 306 308 309 312 315 316 317 318 318 318 319 322 323 323 322 321 319 316 316 316 314 313 312 311 311 311 312 312 312 312 313 314 314 313 314
286 288 289 290 292 293 294 294 295 295 295 295 297 299 298 299 302 304 299 294 292 287 283 286 290 292 296 301 304 306 308 312 315 316 317 317 317 317 319 321 322 322 321 320 317 315 315 315 313 313 314 314 314 314 314 313 313 313 314 314 314 315 317
287 288 289 291 292 294 295 295 294 295 295 296 299 300 300 302 302 297 289 285 283 279 278 282 285 288 294 300 303 305 308 313 315 316 317 316 315 315 318 320 321 321 321 319 317 315 314 314 313 314 316 316 315 315 314 313 313 313 314 314 315 317 319
287 288 289 291 292 294 294 294 294 295 296 297 300 301 302 302 298 293 291 289 284 279 278 279 282 288 296 302 304 305 309 314 315 315 315 314 313 314 317 319 320 321 321 318 316 314 313 313 314 316 317 317 317 316 314 314 313 314 315 316 317 318 320
287 288 289 290 291 292 292 293 295 295 295 297 301 301 298 293 289 289 292 290 286 284 282 282 286 293 299 304 306 307 310 314 314 313 313 312 311 314 316 318 320 321 320 317 314 312 311 312 315 316 316 317 316 315 313 313 314 316 318 320 320 320 321
285 286 287 289 290 291 291 293 294 294 296 300 301 297 289 284 284 287 288 284 281 281 282 286 291 295 300 304 306 307 310 313 313 311 309 309 311 314 317 318 319 319 318 315 312 310 311 313 314 315 316 316 314 313 314 316 317 319 320 321 320 319 320
283 284 286 288 289 290 291 292 294 296 298 298 295 290 289 288 287 287 285 280 280 283 287 291 294 296 300 304 305 306 310 312 310 308 307 309 312 314 316 316 317 317 316 313 311 311 312 313 313 314 315 314 313 314 316 316 317 318 318 318 317 317 318
281 283 285 286 288 290 291 293 296 297 295 292 289 287 287 286 285 285 285 284 285 288 291 294 295 296 300 303 305 307 310 310 308 306 306 310 313 314 314 315 315 316 314 311 310 311 312 311 311 312 312 312 311 312 313 312 313 315 315 315 315 315 316
281 283 285 286 288 290 289 290 291 288 286 288 289 286 284 285 284 284 285 287 288 289 291 292 293 296 300 304 305 307 309 309 306 305 307 310 312 312 313 313 313 313 312 310 309 310 309 308 308 309 310 310 310 310 310 311 312 313 313 314 315 314 314
282 282 283 284 286 286 284 283 281 277 278 281 282 282 283 284 283 283 286 288 288 288 289 290 292 296 301 304 305 307 307 306 305 305 307 309 310 311 311 311 311 311 310 309 308 308 307 307 308 308 309 309 309 309 310 311 312 313 313 314 313 312 312
281 281 282 284 285 284 282 280 278 275 274 274 276 279 282 282 283 285 287 288 288 287 289 291 294 299 302 304 305 306 305 302 303 305 307 307 308 309 309 308 308 308 308 307 306 306 306 306 307 308 308 308 308 309 310 311 312 313 313 313 311 310 310
281 282 283 285 286 285 283 280 276 273 271 273 276 278 280 283 286 287 287 287 287 289 291 294 296 299 302 304 305 304 301 300 302 305 305 306 307 307 307 307 307 307 306 306 305 305 306 306 307 307 307 308 309 309 310 311 312 312 312 312 310 309 308
280 281 282 285 286 283 277 274 274 273 274 275 276 278 282 285 285 285 286 287 288 290 293 295 296 298 300 301 300 297 295 297 300 302 303 304 305 305 305 305 305 306 306 305 305 305 306 306 306 307 308 308 309 309 311 311 312 312 312 311 309 308 306
277 279 282 286 285 276 269 270 274 277 277 276 278 282 284 283 282 282 284 287 289 291 292 293 295 297 298 297 295 293 294 297 299 301 302 303 303 303 303 304 305 305 305 305 305 305 306 306 307 308 308 308 309 310 311 311 311 311 311 309 308 307 304
276 277 279 279 274 269 268 273 277 279 280 280 282 283 282 280 280 282 284 286 288 290 291 293 295 296 296 296 295 296 297 299 300 301 302 303 303 303 303 304 305 305 305 305 305 306 307 308 308 309 309 309 309 310 311 311 310 310 309 308 308 306 302
274 274 273 271 269 269 271 274 275 277 280 282 282 282 282 282 283 285 287 289 290 291 292 294 294 294 295 296 297 298 299 299 300 301 302 302 303 303 304 305 305 305 305 306 306 307 308 308 309 309 309 309 309 310 310 310 309 309 309 308 307 304 299
272 273 273 273 273 273 273 274 275 277 280 281 281 282 284 285 286 288 289 291 292 293 294 294 294 295 296 297 298 299 299 300 300 301 302 302 303 303 304 304 304 305 305 306 307 309 309 308 308 308 309 309 309 308 308 308 308 308 307 306 305 302 297
272 273 274 274 275 276 276 278 278 279 280 281 282 284 285 286 287 289 289 290 291 292 293 295 296 297 298 298 299 299 300 300 300 301 302 303 303 303 303 304 304 305 306 306 307 308 309 309 308 308 307 307 307 307 307 307 306 306 305 304 302 300 295
Height
10970 10967 10964 10963 10963 10963 10960 10959 10959 10955 10952 10951 10950 10948 10946 10945 10943 10940 10938 10936 10934 10932 10929 10927 10925 10922 10919 10916 10913 10911 10908 10904 10901 10898 10895 10892 10889 10886 10883 10879 10875 10872 10868 10865 10861 10858 10855 10852 10849 10846 10844 10842 10839 10836 10835 10834 10833 10832 10831 10830 10830 10830 10830
10967 10965 10962 10960 10959 10959 10958 10955 10955 10953 10949 10948 10947 10945 10944 10942 10939 10937 10935 10933 10931 10928 10926 10925 10922 10919 10916 10913 10910 10907 10905 10902 10898 10894 10891 10888 10885 10882 10879 10875 10871 10868 10864 10860 10856 10852 10849 10846 10843 10840 10838 10835 10833 10830 10829 10828 10826 10825 10824 10823 10822 10823 10823
10965 10963 10962 10959 10955 10954 10955 10952 10951 10951 10948 10946 10945 10943 10941 10938 10936 10935 10933 10931 10928 10925 10924 10922 10919 10916 10912 10909 10907 10904 10902 10899 10895 10892 10888 10884 10881 10877 10874 10870 10866 10862 10858 10855 10850 10847 10843 10840 10837 10834 10831 10829 10826 10824 10823 10821 10819 10818 10817 10815 10815 10815 10815
10964 10961 10959 10958 10952 10949 10952 10951 10948 10947 10946 10944 10942 10941 10938 10936 10934 10932 10930 10928 10926 10923 10921 10918 10915 10912 10908 10905 10903 10901 10898 10895 10891 10888 10884 10880 10877 10873 10869 10866 10861 10857 10853 10850 10846 10842 10838 10835 10831 10827 10824 10822 10820 10818 10816 10814 10813 10811 10810 10808 10807 10807 10808
10961 10958 10956 10955 10951 10947 10948 10949 10947 10944 10942 10941 10939 10938 10935 10932 10931 10929 10927 10925 10923 10920 10918 10915 10911 10908 10904 10901 10899 10896 10894 10891 10887 10883 10879 10876 10873 10869 10865 10862 10857 10853 10849 10845 10841 10838 10834 10830 10826 10823 10819 10816 10813 10811 10810 10808 10807 10805 10803 10801 10800 10800 10800
10958 10956 10953 10951 10949 10945 10943 10944 10944 10941 10939 10937 10935 10934 10932 10929 10927 10926 10924 10922 10920 10917 10913 10910 10906 10903 10900 10896 10894 10891 10888 10885 10881 10878 10875 10871 10868 10865 10861 10857 10853 10848 10844 10841 10837 10833 10829 10825 10821 10817 10813 10810 10807 10805 10803 10801 10800 10799 10796 10794 10793 10792 10791
10954 10954 10951 10948 10947 10944 10939 10938 10939 10937 10935 10933 10931 10929 10929 10927 10924 10922 10920 10918 10916 10913 10909 10905 10901 10898 10896 10892 10888 10885 10881 10878 10875 10871 10869 10865 10862 10859 10855 10852 10847 10842 10837 10833 10830 10827 10823 10819 10815 10811 10807 10804 10800 10798 10796 10794 10793 10792 10790 10788 10786 10785 10783
10950 10951 10949 10945 10944 10942 10937 10934 10934 10933 10930 10929 10927 10925 10924 10922 10919 10917 10915 10912 10911 10909 10904 10899 10895 10893 10891 10887 10883 10879 10875 10871 10868 10865 10862 10859 10856 10853 10849 10846 10842 10836 10830 10825 10820 10817 10814 10811 10807 10803 10800 10796 10793 10790 10787 10786 10785 10783 10782 10781 10779 10776 10774
10946 10946 10945 10942 10940 10939 10936 10931 10930 10929 10927 10925 10924 10921 10918 10916 10913 10911 10909 10906 10904 10901 10897 10893 10890 10887 10885 10881 10876 10872 10868 10865 10861 10858 10856 10853 10850 10846 10843 10839 10836 10832 10826 10820 10815 10809 10805 10801 10797 10794 10791 10788 10785 10782 10779 10777 10775 10774 10773 10772 10770 10767 10764
10942 10941 10940 10938 10935 10934 10933 10929 10926 10925 10923 10920 10920 10917 10912 10909 10907 10906 10905 10901 10897 10894 10889 10886 10887 10883 10877 10872 10868 10864 10861 10858 10855 10852 10850 10847 10844 10840 10836 10831 10828 10825 10821 10815 10811 10806 10800 10795 10790 10786 10783 10780 10777 10774 10772 10769 10766 10764 10763 10762 10760 10757 10754
10935 10936 10935 10934 10931 10928 10927 10925 10922 10921 10919 10915 10913 10911 10907 10904 10902 10900 10899 10896 10891 10887 10882 10879 10881 10879 10871 10864 10860 10856 10854 10852 10849 10847 10844 10841 10837 10834 10830 10825 10820 10816 10812 10808 10804 10799 10794 10789 10783 10778 10774 10771 10768 10766 10763 10761 10758 10755 10753 10751 10749 10746 10744
10929 10929 10928 10928 10927 10923 10920 10919 10917 10915 10913 10910 10907 10905 10902 10900 10898 10895 10893 10890 10886 10882 10878 10874 10874 10872 10867 10860 10856 10852 10849 10847 10844 10842 10839 10835 10831 10827 10822 10817 10812 10808 10804 10800 10796 10791 10786 10781 10777 10772 10768 10764 10761 10758 10755 10753 10750 10747 10744 10741 10738 10735 10733
10923 10923 10923 10921 10920 10918 10916 10914 10911 10908 10907 10905 10903 10900 10897 10895 10894 10891 10888 10884 10881 10878 10876 10872 10868 10865 10860 10856 10853 10850 10846 10844 10841 10837 10834 10829 10825 10821 10816 10811 10806 10801 10797 10793 10789 10785 10780 10775 10771 10766 10762 10758 10754 10751 10748 10746 10742 10739 10736 10733 10729 10725 10722
10916 10916 10917 10916 10915 10912 10911 10909 10906 10903 10902 10901 10898 10894 10891 10888 10887 10885 10882 10878 10875 10873 10872 10869 10864 10858 10854 10850 10848 10846 10843 10840 10837 10833 10829 10824 10819 10814 10810 10805 10799 10794 10789 10784 10780 10776 10771 10767 10762 10758 10754 10750 10747 10744 10741 10738 10734 10732 10730 10725 10721 10717 10713
10911 10910 10909 10910 10910 10908 10906 10905 10901 10898 10896 10894 10892 10888 10884 10881 10879 10878 10875 10871 10868 10867 10865 10862 10856 10851 10848 10845 10842 10840 10836 10833 10830 10826 10822 10817 10812 10807 10802 10797 10792 10787 10781 10776 10772 10768 10763 10758 10754 10750 10746 10742 10739 10738 10735 10730 10726 10724 10722 10718 10714 10710 10706
10907 10905 10903 10902 10903 10903 10901 10900 10897 10893 10891 10888 10884 10880 10878 10875 10874 10873 10869 10865 10863 10860 10857 10852 10847 10843 10841 10839 10836 10833 10829 10826 10822 10819 10815 10810 10805 10800 10795 10791 10786 10780 10775 10770 10765 10760 10755 10751 10746 10742 10739 10735 10732 10730 10727 10722 10717 10715 10713 10709 10706 10702 10698
10900 10900 10899 10896 10896 10895 10894 10894 10893 10889 10886 10884 10880 10875 10872 10870 10869 10868 10863 10860 10858 10853 10847 10843 10839 10836 10834 10833 10830 10827 10823 10819 10815 10811 10807 10802 10798 10793 10789 10784 10779 10774 10768 10763 10757 10753 10749 10744 10740 10736 10732 10728 10725 10722 10719 10714 10709 10706 10703 10700 10696 10693 10688
10893 10893 10892 10891 10891 10890 10888 10887 10888 10886 10882 10881 10877 10871 10868 10866 10863 10861 10857 10855 10853 10847 10841 10837 10834 10830 10827 10826 10824 10820 10817 10814 10810 10805 10800 10795 10790 10786 10781 10777 10772 10766 10761 10755 10750 10746 10742 10738 10734 10730 10725 10721 10718 10715 10711 10707 10701 10697 10694 10691 10686 10682 10677
10887 10885 10884 10883 10883 10885 10883 10880 10881 10882 10879 10876 10873 10872 10869 10863 10856 10855 10855 10854 10850 10843 10835 10830 10826 10822 10820 10820 10817 10813 10810 10807 10803 10799 10795 10789 10784 10779 10774 10769 10764 10758 10753 10748 10743 10739 10735 10731 10728 10724 10720 10714 10710 10707 10704 10700 10694 10689 10687 10683 10678 10674 10669
10879 10878 10877 10876 10874 10877 10878 10875 10874 10877 10875 10870 10870 10875 10874 10864 10855 10854 10855 10853 10847 10839 10829 10823 10817 10814 10812 10812 10809 10805 10802 10800 10796 10792 10787 10782 10777 10772 10767 10761 10756 10751 10745 10740 10737 10732 10728 10725 10721 10717 10714 10708 10703 10699 10695 10692 10687 10681 10679 10675 10669 10665 10660
10871 10869 10869 10868 10866 10867 10869 10868 10868 10869 10869 10864 10863 10868 10870 10863 10857 10856 10855 10851 10844 10833 10823 10817 10812 10808 10806 10805 10802 10798 10795 10792 10788 10784 10779 10774 10769 10764 10759 10754 10749 10743 10736 10731 10727 10722 10719 10716 10712 10709 10706 10701 10696 10691 10686 10682 10677 10672 10670 10666 10660 10656 10651
10864 10861 10860 10860 10858 10857 10858 10859 10860 10861 10860 10859 10857 10858 10858 10856 10855 10857 10857 10853 10842 10828 10817 10811 10807 10804 10803 10801 10797 10792 10788 10784 10779 10774 10770 10765 10760 10756 10752 10747 10742 10736 10729 10722 10717 10712 10709 10707 10703 10699 10696 10692 10688 10683 10678 10673 10669 10664 10662 10658 10653 10648 10643
10858 10854 10852 10851 10850 10849 10847 10847 10850 10851 10850 10851 10851 10849 10848 10849 10848 10846 10847 10843 10832 10821 10813 10806 10801 10799 10798 10794 10789 10784 10780 10776 10770 10765 10761 10756 10751 10747 10743 10739 10735 10729 10722 10714 10707 10703 10701 10698 10694 10690 10687 10682 10678 10673 10669 10664 10659 10656 10653 10649 10645 10641 10636
10849 10848 10845 10843 10843 10841 10838 10837 10839 10841 10841 10843 10846 10846 10846 10844 10834 10825 10824 10823 10816 10810 10805 10798 10794 10793 10789 10783 10779 10774 10770 10767 10761 10756 10752 10748 10743 10739 10735 10730 10726 10720 10714 10706 10699 10695 10692 10689 10686 10682 10678 10673 10668 10663 10658 10653 10649 10647 10643 10639 10635 10631 10627
10840 10841 10838 10836 10835 10833 10831 10829 10830 10831 10832 10832 10837 10844 10846 10836 10820 10810 10808 10806 10801 10797 10794 10790 10788 10784 10778 10771 10766 10762 10758 10756 10752 10746 10741 10738 10735 10731 10726 10720 10715 10711 10705 10698 10691 10687 10684 10681 10678 10675 10670 10666 10660 10654 10649 10644 10641 10637 10633 10628 10624 10619 10616
10833 10834 10832 10830 10828 10825 10823 10823 10823 10824 10823 10821 10824 10831 10832 10821 10808 10801 10796 10793 10790 10788 10786 10785 10783 10778 10771 10763 10757 10753 10749 10747 10744 10737 10732 10729 10725 10721 10716 10710 10705 10702 10697 10689 10684 10680 10676 10673 10670 10667 10663 10658 10651 10645 10639 10633 10629 10626 10623 10619 10614 10610 10606
10827 10827 10826 10824 10822 10819 10817 10817 10816 10815 10815 10816 10817 10816 10810 10801 10794 10790 10786 10783 10782 10779 10777 10777 10775 10771 10765 10758 10752 10747 10741 10738 10735 10728 10723 10720 10716 10710 10706 10702 10698 10694 10688 10681 10677 10673 10669 10665 10662 10659 10655 10649 10641 10637 10632 10624 10618 10618 10616 10612 10607 10603 10599
10819 10820 10820 10818 10816 10814 10812 10813 10814 10810 10806 10806 10808 10805 10798 10789 10783 10780 10778 10777 10775 10771 10768 10765 10763 10760 10755 10750 10745 10739 10733 10730 10726 10719 10714 10711 10706 10700 10697 10694 10690 10685 10678 10672 10669 10666 10661 10657 10655 10653 10649 10641 10634 10632 10629 10623 10617 10615 10610 10605 10600 10596 10593
10812 10812 10813 10812 10810 10808 10809 10811 10812 10807 10800 10795 10794 10793 10788 10781 10776 10774 10772 10770 10767 10764 10760 10756 10753 10750 10746 10741 10737 10731 10725 10721 10716 10709 10703 10701 10697 10692 10687 10684 10682 10677 10669 10665 10662 10659 10655 10650 10647 10646 10642 10635 10629 10626 10623 10617 10614 10610 10603 10598 10593 10588 10585
10803 10803 10803 10805 10804 10801 10801 10803 10802 10799 10794 10788 10783 10780 10776 10772 10769 10766 10764 10762 10760 10756 10752 10748 10744 10740 10735 10732 10728 10722 10716 10711 10705 10699 10695 10691 10689 10686 10680 10675 10674 10671 10665 10659 10655 10651 10647 10642 10638 10636 10633 10628 10622 10618 10614 10609 10604 10601 10596 10591 10586 10581 10577
10793 10791 10793 10797 10796 10790 10788 10789 10789 10787 10785 10781 10775 10769 10766 10763 10760 10756 10753 10752 10750 10746 10743 10739 10734 10729 10726 10721 10717 10712 10708 10702 10696 10691 10687 10684 10681 10679 10673 10668 10665 10664 10660 10654 10648 10643 10640 10636 10630 10626 10622 10618 10613 10609 10606 10600 10595 10591 10588 10584 10579 10574 10570
10781 10780 10783 10787 10787 10780 10774 10773 10774 10774 10774 10771 10765 10760 10758 10755 10751 10745 10742 10741 10739 10735 10732 10728 10723 10721 10718 10712 10706 10702 10698 10694 10689 10683 10679 10676 10673 10669 10665 10659 10656 10654 10651 10646 10640 10635 10631 10627 10623 10617 10613 10609 10603 10599 10596 10591 10585 10582 10579 10575 10571 10567 10563
10773 10771 10773 10777 10778 10772 10763 10759 10759 10761 10762 10759 10754 10753 10752 10749 10742 10735 10730 10729 10729 10727 10723 10719 10715 10713 10711 10706 10703 10699 10695 10692 10687 10680 10673 10669 10666 10661 10655 10650 10646 10644 10641 10635 10630 10625 10621 10617 10613 10609 10604 10598 10593 10588 10585 10581 10576 10572 10570 10566 10563 10560 10557
10766 10763 10765 10769 10768 10763 10756 10751 10749 10749 10748 10746 10744 10743 10743 10740 10735 10728 10722 10720 10720 10719 10716 10713 10709 10706 10704 10701 10698 10695 10690 10686 10681 10673 10666 10661 10656 10652 10647 10641 10636 10633 10630 10625 10620 10616 10611 10606 10602 10598 10593 10587 10582 10578 10575 10571 10567 10564 10562 10558 10556 10553 10550
10757 10757 10760 10764 10761 10755 10751 10749 10745 10739 10735 10733 10732 10732 10731 10729 10725 10720 10716 10715 10714 10711 10708 10705 10700 10696 10694 10691 10687 10683 10679 10673 10667 10662 10656 10650 10644 10641 10636 10630 10624 10620 10616 10611 10607 10604 10599 10595 10590 10586 10582 10577 10572 10569 10566 10561 10558 10556 10554 10551 10548 10546 10543
10747 10748 10752 10755 10753 10749 10746 10746 10743 10735 10728 10724 10722 10720 10718 10717 10714 10709 10705 10704 10702 10698 10696 10695 10692 10687 10683 10679 10675 10671 10666 10661 10656 10650 10645 10639 10633 10629 10625 10619 10613 10608 10604 10599 10596 10592 10588 10583 10579 10575 10572 10567 10562 10559 10557 10553 10549 10547 10545 10543 10541 10539 10537
10738 10739 10740 10741 10739 10737 10736 10734 10732 10727 10722 10718 10714 10710 10705 10703 10702 10697 10692 10690 10687 10683 10680 10679 10678 10675 10670 10666 10662 10658 10652 10647 10644 10639 10634 10629 10623 10618 10614 10610 10604 10598 10593 10589 10586 10582 10577 10573 10569 10565 10562 10558 10553 10550 10548 10545 10541 10539 10537 10535 10534 10533 10531
10729 10730 10730 10728 10725 10723 10721 10719 10716 10713 10711 10708 10704 10699 10693 10689 10688 10685 10680 10677 10677 10673 10667 10663 10661 10657 10653 10649 10646 10643 10638 10633 10630 10627 10623 10618 10613 10607 10602 10598 10594 10589 10584 10578 10575 10572 10568 10564 10560 10556 10552 10549 10544 10541 10538 10536 10533 10530 10529 10528 10527 10526 10525